• en Belgique
  • Liste des pays
  • À 7 jours
  • Température de l'eau
  • Carte satellitaire
  • Carte météo
  • Widgets météo
  • user-avatar
    Se connecter

    Météo par heure à Tebessa

    Ce jour, 16 Juillet, Lundi

    Heure Température Précipitation Vent Pression Humidité
    00:00 +34°C° 0 mm 3 m/s 688 mmHg 31%
    01:00 +33°C° 0 mm 3 m/s 688 mmHg 37%
    02:00 +31°C° 0 mm 3 m/s 688 mmHg 37%
    03:00 +31°C° 0 mm 3 m/s 688 mmHg 38%
    04:00 +30°C° 0 mm 3 m/s 687 mmHg 38%
    05:00 +31°C° 0 mm 3 m/s 688 mmHg 34%
    06:00 +33°C° 0 mm 3 m/s 688 mmHg 31%
    07:00 +33°C° 0 mm 3 m/s 688 mmHg 27%
    08:00 +35°C° 0 mm 4 m/s 688 mmHg 23%
    09:00 +36°C° 0 mm 5 m/s 689 mmHg 19%
    10:00 +39°C° 0 mm 6 m/s 689 mmHg 16%
    11:00 +40°C° 0 mm 6 m/s 689 mmHg 14%
    12:00 +41°C° 0 mm 5 m/s 689 mmHg 13%
    13:00 +42°C° 0 mm 5 m/s 689 mmHg 12%
    14:00 +42°C° 0 mm 6 m/s 689 mmHg 13%
    15:00 +42°C° 0 mm 6 m/s 689 mmHg 13%
    16:00 +41°C° 0 mm 6 m/s 688 mmHg 14%
    17:00 +40°C° 0 mm 6 m/s 688 mmHg 16%
    18:00 +39°C° 0 mm 6 m/s 688 mmHg 19%
    19:00 +38°C° 0 mm 6 m/s 688 mmHg 21%
    20:00 +35°C° 0 mm 6 m/s 688 mmHg 25%
    21:00 +33°C° 0 mm 5 m/s 688 mmHg 29%
    22:00 +30°C° 0 mm 5 m/s 688 mmHg 33%
    23:00 +29°C° 0 mm 4 m/s 688 mmHg 35%

    Demain, 17 Juillet, Mardi

    Heure Température Précipitation Vent Pression Humidité
    00:00 +28°C° 0 mm 3 m/s 688 mmHg 37%
    01:00 +27°C° 0 mm 3 m/s 688 mmHg 39%
    02:00 +27°C° 0 mm 2 m/s 688 mmHg 40%
    03:00 +26°C° 0 mm 2 m/s 688 mmHg 41%
    04:00 +26°C° 0 mm 1 m/s 687 mmHg 42%
    05:00 +26°C° 0 mm 2 m/s 687 mmHg 40%
    06:00 +26°C° 0 mm 2 m/s 688 mmHg 39%
    07:00 +26°C° 0 mm 2 m/s 688 mmHg 37%
    08:00 +28°C° 0 mm 2 m/s 688 mmHg 33%
    09:00 +29°C° 0 mm 2 m/s 689 mmHg 29%
    10:00 +30°C° 0 mm 2 m/s 689 mmHg 25%
    11:00 +32°C° 0 mm 2 m/s 689 mmHg 22%
    12:00 +34°C° 0 mm 2 m/s 689 mmHg 20%
    13:00 +36°C° 0 mm 2 m/s 689 mmHg 18%
    14:00 +36°C° 0 mm 3 m/s 689 mmHg 17%
    15:00 +37°C° 0 mm 3 m/s 689 mmHg 16%
    16:00 +38°C° 0 mm 4 m/s 689 mmHg 15%
    17:00 +37°C° 0 mm 4 m/s 689 mmHg 16%
    18:00 +37°C° 0 mm 5 m/s 688 mmHg 17%
    19:00 +36°C° 0 mm 5 m/s 688 mmHg 18%
    20:00 +34°C° 0 mm 4 m/s 688 mmHg 22%
    21:00 +33°C° 0 mm 3 m/s 689 mmHg 25%
    22:00 +31°C° 0 mm 3 m/s 689 mmHg 29%
    23:00 +30°C° 0 mm 2 m/s 689 mmHg 32%

    Après-demain, 18 Juillet, Mercredi

    Heure Température Précipitation Vent Pression Humidité
    00:00 +29°C° 0 mm 2 m/s 688 mmHg 35%
    01:00 +28°C° 0 mm 2 m/s 688 mmHg 38%
    02:00 +28°C° 0 mm 1 m/s 688 mmHg 39%
    03:00 +27°C° 0 mm 1 m/s 687 mmHg 41%
    04:00 +27°C° 0 mm 1 m/s 687 mmHg 43%
    05:00 +27°C° 0 mm 1 m/s 687 mmHg 42%
    06:00 +28°C° 0 mm 1 m/s 687 mmHg 41%
    07:00 +28°C° 0 mm 1 m/s 687 mmHg 41%
    08:00 +30°C° 0 mm 2 m/s 688 mmHg 36%
    09:00 +32°C° 0 mm 2 m/s 688 mmHg 31%
    10:00 +34°C° 0 mm 2 m/s 689 mmHg 26%
    11:00 +36°C° 0 mm 3 m/s 689 mmHg 23%
    12:00 +38°C° 0 mm 4 m/s 689 mmHg 20%
    13:00 +40°C° 0 mm 4 m/s 689 mmHg 16%
    14:00 +41°C° 0 mm 4 m/s 689 mmHg 15%
    15:00 +41°C° 0 mm 4 m/s 688 mmHg 15%
    16:00 +41°C° 0 mm 5 m/s 688 mmHg 14%
    17:00 +41°C° 0 mm 4 m/s 688 mmHg 14%
    18:00 +41°C° 0 mm 4 m/s 688 mmHg 14%
    19:00 +40°C° 0 mm 4 m/s 687 mmHg 15%
    20:00 +38°C° 0 mm 3 m/s 687 mmHg 17%
    21:00 +36°C° 0 mm 3 m/s 687 mmHg 20%
    22:00 +35°C° 0 mm 3 m/s 688 mmHg 22%
    23:00 +34°C° 0 mm 3 m/s 687 mmHg 24%

    19 Juillet, Jeudi

    Heure Température Précipitation Vent Pression Humidité
    00:00 +32°C° 0 mm 2 m/s 687 mmHg 25%
    01:00 +31°C° 0 mm 2 m/s 687 mmHg 27%
    02:00 +31°C° 0 mm 2 m/s 686 mmHg 28%
    03:00 +30°C° 0 mm 2 m/s 686 mmHg 29%
    04:00 +30°C° 0 mm 2 m/s 686 mmHg 30%
    05:00 +30°C° 0 mm 1 m/s 686 mmHg 28%
    06:00 +31°C° 0 mm 1 m/s 686 mmHg 27%
    07:00 +32°C° 0 mm 1 m/s 687 mmHg 25%
    08:00 +35°C° 0 mm 2 m/s 687 mmHg 22%
    09:00 +36°C° 0 mm 2 m/s 688 mmHg 20%
    10:00 +38°C° 0 mm 3 m/s 688 mmHg 17%
    11:00 +39°C° 0 mm 3 m/s 688 mmHg 16%
    12:00 +40°C° 0 mm 3 m/s 688 mmHg 14%
    13:00 +42°C° 0 mm 4 m/s 688 mmHg 13%
    14:00 +42°C° 0 mm 4 m/s 688 mmHg 12%
    15:00 +43°C° 0 mm 4 m/s 688 mmHg 12%
    16:00 +43°C° 0 mm 5 m/s 687 mmHg 11%
    17:00 +42°C° 0 mm 5 m/s 687 mmHg 12%
    18:00 +41°C° 0 mm 5 m/s 687 mmHg 13%
    19:00 +40°C° 0 mm 5 m/s 687 mmHg 14%
    20:00 +38°C° 0 mm 4 m/s 687 mmHg 16%
    21:00 +37°C° 0 mm 4 m/s 688 mmHg 19%
    22:00 +35°C° 0 mm 3 m/s 688 mmHg 21%
    23:00 +34°C° 0 mm 3 m/s 687 mmHg 24%

    20 Juillet, Vendredi

    Heure Température Précipitation Vent Pression Humidité
    00:00 +34°C° 0 mm 2 m/s 687 mmHg 26%
    01:00 +32°C° 0 mm 2 m/s 687 mmHg 29%
    02:00 +31°C° 0 mm 1 m/s 687 mmHg 31%
    03:00 +31°C° 0 mm 1 m/s 686 mmHg 32%
    04:00 +30°C° 0 mm 1 m/s 686 mmHg 34%
    05:00 +31°C° 0 mm 1 m/s 686 mmHg 33%
    06:00 +31°C° 0 mm 2 m/s 686 mmHg 32%
    07:00 +32°C° 0 mm 2 m/s 687 mmHg 31%
    08:00 +35°C° 0 mm 4 m/s 687 mmHg 26%
    09:00 +37°C° 0 mm 5 m/s 688 mmHg 22%
    10:00 +39°C° 0 mm 6 m/s 688 mmHg 18%
    11:00 +41°C° 0 mm 6 m/s 688 mmHg 16%
    12:00 +42°C° 0 mm 6 m/s 688 mmHg 14%
    13:00 +44°C° 0 mm 6 m/s 688 mmHg 12%
    14:00 +44°C° 0 mm 6 m/s 688 mmHg 12%
    15:00 +43°C° 0 mm 5 m/s 687 mmHg 12%
    16:00 +43°C° 0 mm 5 m/s 687 mmHg 12%
    17:00 +42°C° 0 mm 5 m/s 687 mmHg 14%
    18:00 +41°C° 0 mm 5 m/s 687 mmHg 15%
    19:00 +40°C° 0 mm 5 m/s 687 mmHg 17%
    20:00 +37°C° 0 mm 5 m/s 687 mmHg 21%
    21:00 +35°C° 0 mm 4 m/s 688 mmHg 26%
    22:00 +33°C° 0 mm 4 m/s 688 mmHg 30%
    23:00 +33°C° 0 mm 3 m/s 688 mmHg 31%

    21 Juillet, Samedi

    Heure Température Précipitation Vent Pression Humidité
    00:00 +31°C° 0 mm 3 m/s 688 mmHg 33%
    01:00 +30°C° 0 mm 3 m/s 688 mmHg 35%
    02:00 +30°C° 0 mm 3 m/s 687 mmHg 35%
    03:00 +29°C° 0 mm 2 m/s 687 mmHg 35%
    04:00 +29°C° 0 mm 2 m/s 687 mmHg 36%
    05:00 +29°C° 0 mm 2 m/s 687 mmHg 35%
    06:00 +29°C° 0 mm 3 m/s 688 mmHg 34%
    07:00 +28°C° 0 mm 3 m/s 688 mmHg 34%
    08:00 +29°C° 0 mm 3 m/s 688 mmHg 30%
    09:00 +31°C° 0 mm 2 m/s 688 mmHg 27%
    10:00 +32°C° 0 mm 2 m/s 689 mmHg 23%
    11:00 +34°C° 0 mm 2 m/s 689 mmHg 21%
    12:00 +36°C° 0 mm 2 m/s 689 mmHg 19%
    13:00 +38°C° 0 mm 2 m/s 689 mmHg 16%
    14:00 +38°C° 0 mm 3 m/s 689 mmHg 17%
    15:00 +38°C° 0 mm 4 m/s 689 mmHg 17%
    16:00 +39°C° 0 mm 6 m/s 689 mmHg 17%
    17:00 +38°C° 0 mm 6 m/s 689 mmHg 20%
    18:00 +36°C° 0 mm 5 m/s 689 mmHg 23%
    19:00 +35°C° 0 mm 5 m/s 689 mmHg 26%
    20:00 +34°C° 0 mm 5 m/s 689 mmHg 30%
    21:00 +32°C° 0 mm 4 m/s 689 mmHg 35%
    22:00 +30°C° 0 mm 4 m/s 689 mmHg 39%
    23:00 +29°C° 0 mm 3 m/s 689 mmHg 42%
    Voir plus